| time (UTC) | temp F | wind direction | speed knots | gust knots | rain 1hr in | rain 24hr in | rain mn in | humidity % | barometer mb |
| 20260505221229 | 43 | 11 | 3.5 | 9.6 | 0.00 | 0.00 | 0.00 | 81 | 1016.4 |
| 20260505220728 | 43 | 21 | 5.2 | 9.6 | 0.00 | 0.00 | 0.00 | 81 | 1016.6 |
| 20260505220230 | 44 | 10 | 5.2 | 9.6 | 0.00 | 0.00 | 0.00 | 82 | 1016.4 |
| 20260505215728 | 44 | 3 | 3.5 | 10.4 | 0.00 | 0.00 | 0.00 | 82 | 1016.6 |
| 20260505215229 | 44 | 20 | 5.2 | 10.4 | 0.00 | 0.00 | 0.00 | 82 | 1016.6 |
| 20260505214728 | 44 | 16 | 4.3 | 10.4 | 0.00 | 0.00 | 0.00 | 82 | 1016.4 |
| 20260505214228 | 44 | 11 | 3.5 | 10.4 | 0.00 | 0.00 | 0.00 | 81 | 1016.4 |
| 20260505213228 | 44 | 16 | 6.1 | 11.3 | 0.00 | 0.00 | 0.00 | 81 | 1016.4 |
| 20260505212728 | 44 | 347 | 5.2 | 10.4 | 0.00 | 0.00 | 0.00 | 82 | 1016.6 |
| 20260505211728 | 44 | 32 | 5.2 | 13.9 | 0.00 | 0.00 | 0.00 | 82 | 1016.7 |
| 20260505211227 | 44 | 23 | 7.8 | 13.9 | 0.00 | 0.00 | 0.00 | 82 | 1016.7 |
| 20260505210728 | 44 | 13 | 6.1 | 10.4 | 0.00 | 0.00 | 0.00 | 84 | 1016.8 |
| 20260505210229 | 44 | 18 | 4.3 | 11.3 | 0.00 | 0.00 | 0.00 | 84 | 1016.7 |
| 20260505205730 | 44 | 34 | 5.2 | 11.3 | 0.00 | 0.00 | 0.00 | 84 | 1016.7 |
| 20260505205228 | 44 | 59 | 6.1 | 11.3 | 0.00 | 0.00 | 0.00 | 84 | 1016.9 |
| 20260505204729 | 44 | 47 | 7.0 | 11.3 | 0.00 | 0.00 | 0.00 | 84 | 1016.8 |
| 20260505204228 | 44 | 47 | 3.5 | 9.6 | 0.00 | 0.00 | 0.00 | 84 | 1016.8 |
| 20260505203226 | 44 | 7 | 4.3 | 11.3 | 0.00 | 0.00 | 0.00 | 84 | 1016.7 |
| 20260505202730 | 44 | 25 | 5.2 | 12.2 | 0.00 | 0.00 | 0.00 | 84 | 1016.7 |
| 20260505202229 | 44 | 28 | 6.1 | 12.2 | 0.00 | 0.00 | 0.00 | 84 | 1016.7 |
| 20260505201728 | 44 | 14 | 6.1 | 12.2 | 0.00 | 0.00 | 0.00 | 85 | 1016.7 |
| 20260505201229 | 44 | 0 | 6.1 | 10.4 | 0.00 | 0.00 | 0.00 | 85 | 1016.7 |
| 20260505200727 | 44 | 47 | 3.5 | 9.6 | 0.00 | 0.00 | 0.00 | 85 | 1016.6 |
| 20260505200231 | 44 | 0 | 5.2 | 9.6 | 0.00 | 0.00 | 0.00 | 85 | 1016.6 |
| 20260505195727 | 44 | 4 | 6.1 | 13.0 | 0.00 | 0.00 | 0.00 | 85 | 1016.7 |
| 20260505194228 | 44 | 7 | 6.1 | 13.9 | 0.00 | 0.00 | 0.00 | 85 | 1016.6 |
| 20260505193228 | 45 | 28 | 8.7 | 13.9 | 0.00 | 0.00 | 0.00 | 85 | 1016.4 |
| 20260505192727 | 45 | 17 | 7.8 | 11.3 | 0.00 | 0.00 | 0.00 | 85 | 1016.3 |
| 20260505192229 | 45 | 16 | 6.1 | 12.2 | 0.00 | 0.00 | 0.00 | 86 | 1016.3 |
| 20260505191728 | 45 | 0 | 7.0 | 12.2 | 0.00 | 0.00 | 0.00 | 86 | 1016.2 |
| 20260505191227 | 45 | 25 | 5.2 | 13.9 | 0.00 | 0.00 | 0.00 | 86 | 1016.1 |
| 20260505190227 | 45 | 56 | 6.1 | 15.6 | 0.00 | 0.00 | 0.00 | 85 | 1016.1 |
| 20260505185227 | 45 | 7 | 7.0 | 15.6 | 0.00 | 0.00 | 0.00 | 85 | 1016.2 |
| 20260505184727 | 45 | 351 | 9.6 | 18.2 | 0.00 | 0.00 | 0.00 | 84 | 1016.1 |
| 20260505182728 | 46 | 41 | 7.8 | 17.4 | 0.00 | 0.00 | 0.00 | 84 | 1016.0 |
| 20260505182226 | 46 | 30 | 7.0 | 17.4 | 0.00 | 0.00 | 0.00 | 85 | 1015.9 |
| 20260505181229 | 46 | 14 | 8.7 | 16.5 | 0.00 | 0.00 | 0.00 | 85 | 1016.0 |
| 20260505180226 | 46 | 0 | 7.0 | 13.9 | 0.00 | 0.00 | 0.00 | 85 | 1016.0 |
| 20260505175228 | 46 | 1 | 8.7 | 13.0 | 0.00 | 0.00 | 0.00 | 84 | 1016.1 |
| 20260505174727 | 46 | 358 | 7.8 | 16.5 | 0.00 | 0.00 | 0.00 | 84 | 1016.1 |
| 20260505174228 | 46 | 0 | 7.8 | 16.5 | 0.00 | 0.00 | 0.00 | 84 | 1016.1 |
| 20260505172727 | 46 | 7 | 7.0 | 15.6 | 0.00 | 0.00 | 0.00 | 84 | 1016.1 |
| 20260505171226 | 47 | 0 | 7.0 | 16.5 | 0.00 | 0.00 | 0.00 | 82 | 1016.1 |
| 20260505170726 | 47 | 27 | 8.7 | 16.5 | 0.00 | 0.00 | 0.00 | 82 | 1016.1 |
| 20260505170228 | 47 | 11 | 9.6 | 16.5 | 0.00 | 0.00 | 0.00 | 82 | 1016.1 |
| 20260505165727 | 47 | 34 | 7.8 | 14.8 | 0.00 | 0.00 | 0.00 | 82 | 1016.0 |
| 20260505165228 | 47 | 358 | 8.7 | 14.8 | 0.00 | 0.00 | 0.00 | 81 | 1016.1 |
| 20260505164728 | 47 | 25 | 9.6 | 17.4 | 0.00 | 0.00 | 0.00 | 82 | 1016.0 |
| 20260505163726 | 47 | 4 | 7.8 | 15.6 | 0.00 | 0.00 | 0.00 | 83 | 1016.1 |
| 20260505163228 | 47 | 6 | 8.7 | 16.5 | 0.00 | 0.00 | 0.00 | 83 | 1016.0 |
| 20260505162726 | 47 | 0 | 8.7 | 17.4 | 0.00 | 0.00 | 0.00 | 83 | 1016.0 |
| 20260505162227 | 47 | 14 | 9.6 | 17.4 | 0.00 | 0.00 | 0.00 | 83 | 1016.0 |
| 20260505161726 | 47 | 353 | 8.7 | 16.5 | 0.00 | 0.00 | 0.00 | 83 | 1016.0 |
| 20260505160728 | 48 | 0 | 7.8 | 18.2 | 0.00 | 0.00 | 0.00 | 82 | 1015.9 |
| 20260505160227 | 48 | 0 | 11.3 | 18.2 | 0.00 | 0.00 | 0.00 | 82 | 1015.8 |
| 20260505153226 | 48 | 0 | 8.7 | 15.6 | 0.00 | 0.00 | 0.00 | 84 | 1015.6 |
| 20260505152728 | 48 | 0 | 8.7 | 17.4 | 0.00 | 0.00 | 0.00 | 85 | 1015.6 |
| 20260505152228 | 48 | 4 | 10.4 | 21.7 | 0.00 | 0.00 | 0.00 | 84 | 1015.5 |
| 20260505151728 | 48 | 355 | 12.2 | 21.7 | 0.00 | 0.00 | 0.00 | 84 | 1015.6 |
| 20260505151227 | 49 | 10 | 10.4 | 18.2 | 0.00 | 0.00 | 0.00 | 84 | 1015.4 |
| 20260505150728 | 49 | 0 | 7.8 | 16.5 | 0.00 | 0.00 | 0.00 | 84 | 1015.5 |
| 20260505150226 | 49 | 354 | 9.6 | 16.5 | 0.00 | 0.00 | 0.00 | 84 | 1015.4 |
| 20260505140227 | 51 | 18 | 8.7 | 15.6 | 0.00 | 0.00 | 0.00 | 78 | 1015.4 |
| 20260505130229 | 50 | 8 | 6.1 | 18.2 | 0.00 | 0.00 | 0.00 | 82 | 1015.1 |
| 20260505124726 | 49 | 0 | 8.7 | 16.5 | 0.00 | 0.00 | 0.00 | 85 | 1015.1 |
| 20260505124228 | 49 | 351 | 10.4 | 16.5 | 0.00 | 0.00 | 0.00 | 86 | 1015.1 |
| 20260505123728 | 49 | 337 | 12.2 | 16.5 | 0.00 | 0.00 | 0.00 | 84 | 1015.1 |
| 20260505123228 | 49 | 1 | 9.6 | 15.6 | 0.00 | 0.00 | 0.00 | 84 | 1015.1 |
| 20260505122228 | 49 | 0 | 7.8 | 16.5 | 0.00 | 0.00 | 0.00 | 85 | 1015.0 |
| 20260505121726 | 49 | 1 | 8.7 | 15.6 | 0.00 | 0.00 | 0.00 | 86 | 1015.0 |
| 20260505121226 | 49 | 357 | 9.6 | 13.9 | 0.00 | 0.00 | 0.00 | 87 | 1015.0 |
| 20260505115228 | 48 | 0 | 7.8 | 13.0 | 0.00 | 0.00 | 0.00 | 88 | 1014.9 |
| 20260505114726 | 49 | 355 | 7.8 | 12.2 | 0.00 | 0.00 | 0.00 | 90 | 1014.8 |
| 20260505114227 | 48 | 37 | 4.3 | 11.3 | 0.00 | 0.00 | 0.00 | 89 | 1014.9 |
| 20260505113226 | 48 | 0 | 7.8 | 13.9 | 0.00 | 0.00 | 0.00 | 89 | 1014.9 |
| 20260505112726 | 48 | 0 | 7.0 | 13.9 | 0.00 | 0.00 | 0.00 | 88 | 1014.8 |
| 20260505112225 | 48 | 337 | 7.8 | 13.9 | 0.00 | 0.00 | 0.00 | 88 | 1014.8 |
| 20260505111727 | 48 | 353 | 7.0 | 13.9 | 0.00 | 0.00 | 0.00 | 87 | 1014.8 |
| 20260505111228 | 48 | 345 | 7.0 | 13.9 | 0.00 | 0.00 | 0.00 | 87 | 1014.8 |
| 20260505110726 | 48 | 0 | 7.8 | 12.2 | 0.00 | 0.00 | 0.00 | 87 | 1014.9 |
| 20260505110227 | 49 | 350 | 6.1 | 11.3 | 0.00 | 0.00 | 0.00 | 89 | 1014.8 |
| 20260505101727 | 51 | 343 | 6.1 | 12.2 | 0.00 | 0.00 | 0.00 | 82 | 1014.5 |
| 20260505101229 | 51 | 344 | 6.1 | 12.2 | 0.00 | 0.00 | 0.00 | 83 | 1014.6 |
| 20260505100728 | 51 | 336 | 4.3 | 9.6 | 0.00 | 0.00 | 0.00 | 82 | 1014.4 |
| 20260505095726 | 50 | 0 | 4.3 | 11.3 | 0.00 | 0.00 | 0.00 | 82 | 1014.5 |
| 20260505095227 | 50 | 347 | 7.0 | 11.3 | 0.00 | 0.00 | 0.00 | 82 | 1014.5 |
| 20260505094728 | 50 | 8 | 6.1 | 10.4 | 0.00 | 0.00 | 0.00 | 81 | 1014.5 |
| 20260505093727 | 51 | 10 | 5.2 | 13.0 | 0.00 | 0.00 | 0.00 | 81 | 1014.5 |
| 20260505093228 | 51 | 4 | 6.1 | 13.0 | 0.00 | 0.00 | 0.00 | 81 | 1014.5 |
| 20260505092727 | 51 | 13 | 6.1 | 12.2 | 0.00 | 0.00 | 0.00 | 81 | 1014.4 |
| 20260505092227 | 51 | 310 | 7.0 | 11.3 | 0.00 | 0.00 | 0.00 | 81 | 1014.3 |
| 20260505091726 | 50 | 3 | 5.2 | 10.4 | 0.00 | 0.00 | 0.00 | 81 | 1014.3 |
| 20260505091228 | 50 | 0 | 4.3 | 10.4 | 0.00 | 0.00 | 0.00 | 81 | 1014.4 |
| 20260505085227 | 51 | 354 | 4.3 | 11.3 | 0.00 | 0.00 | 0.00 | 79 | 1014.3 |
| 20260505084728 | 51 | 0 | 7.0 | 11.3 | 0.00 | 0.00 | 0.00 | 79 | 1014.2 |
| 20260505084226 | 51 | 347 | 5.2 | 9.6 | 0.00 | 0.00 | 0.00 | 80 | 1014.2 |
| 20260505083726 | 51 | 323 | 5.2 | 7.8 | 0.00 | 0.00 | 0.00 | 81 | 1014.1 |
| 20260505083228 | 51 | 353 | 2.6 | 9.6 | 0.00 | 0.00 | 0.00 | 82 | 1014.1 |
| 20260505082726 | 50 | 337 | 4.3 | 11.3 | 0.00 | 0.00 | 0.00 | 82 | 1014.2 |
| 20260505082224 | 50 | 354 | 5.2 | 11.3 | 0.00 | 0.00 | 0.00 | 82 | 1014.2 |
| 20260505081724 | 49 | 330 | 3.5 | 10.4 | 0.00 | 0.00 | 0.00 | 83 | 1014.1 |
| 20260505080227 | 49 | 272 | 2.6 | 7.0 | 0.00 | 0.00 | 0.00 | 83 | 1014.1 |
| 20260505075728 | 49 | 238 | 2.6 | 7.0 | 0.00 | 0.00 | 0.00 | 83 | 1014.2 |
| 20260505075226 | 48 | 320 | 2.6 | 7.0 | 0.00 | 0.00 | 0.00 | 83 | 1014.1 |
| 20260505074729 | 48 | 257 | 3.5 | 7.0 | 0.00 | 0.00 | 0.00 | 83 | 1014.2 |
| 20260505074227 | 48 | 264 | 1.7 | 6.1 | 0.00 | 0.00 | 0.00 | 84 | 1014.2 |
| 20260505073228 | 48 | 288 | 1.7 | 7.8 | 0.00 | 0.00 | 0.00 | 84 | 1014.2 |
| 20260505072725 | 48 | 237 | 3.5 | 7.8 | 0.00 | 0.00 | 0.00 | 84 | 1014.2 |
| 20260505072226 | 47 | 216 | 3.5 | 7.8 | 0.00 | 0.00 | 0.00 | 85 | 1014.2 |
| 20260505071226 | 47 | 247 | 3.5 | 7.8 | 0.00 | 0.00 | 0.00 | 85 | 1014.1 |
| 20260505070225 | 47 | 281 | 3.5 | 9.6 | 0.00 | 0.00 | 0.00 | 87 | 1014.1 |
| 20260505065727 | 46 | 199 | 3.5 | 7.0 | 0.00 | 0.00 | 0.00 | 88 | 1014.2 |
| 20260505065227 | 46 | 202 | 2.6 | 7.0 | 0.00 | 0.00 | 0.00 | 90 | 1014.2 |
| 20260505064726 | 45 | 243 | 3.5 | 7.8 | 0.00 | 0.00 | 0.00 | 91 | 1014.3 |
| 20260505064227 | 45 | 228 | 3.5 | 7.8 | 0.00 | 0.00 | 0.00 | 92 | 1014.3 |
| 20260505063728 | 44 | 262 | 3.5 | 6.1 | 0.00 | 0.00 | 0.00 | 94 | 1014.2 |
| 20260505062729 | 43 | 248 | 3.5 | 6.1 | 0.00 | 0.00 | 0.00 | 94 | 1014.2 |
| 20260505062225 | 43 | 247 | 0.9 | 6.1 | 0.00 | 0.00 | 0.00 | 94 | 1014.2 |
| 20260505061727 | 42 | 216 | 2.6 | 6.1 | 0.00 | 0.00 | 0.00 | 94 | 1014.1 |
| 20260505061224 | 42 | 250 | 1.7 | 6.1 | 0.00 | 0.00 | 0.00 | 94 | 1014.2 |
| 20260505060727 | 42 | 286 | 1.7 | 6.1 | 0.00 | 0.00 | 0.00 | 94 | 1014.2 |
| 20260505060226 | 41 | 258 | 3.5 | 6.1 | 0.00 | 0.00 | 0.00 | 94 | 1014.2 |
| 20260505055729 | 41 | 295 | 1.7 | 6.1 | 0.00 | 0.00 | 0.00 | 94 | 1014.2 |
| 20260505055227 | 41 | 251 | 3.5 | 6.1 | 0.00 | 0.00 | 0.00 | 94 | 1014.1 |
| 20260505054225 | 40 | 282 | 2.6 | 6.1 | 0.00 | 0.00 | 0.00 | 94 | 1014.0 |
| 20260505053226 | 40 | 265 | 1.7 | 5.2 | 0.00 | 0.00 | 0.00 | 93 | 1014.0 |
| 20260505052225 | 40 | 279 | 1.7 | 7.0 | 0.00 | 0.00 | 0.00 | 93 | 1013.9 |
| 20260505051726 | 40 | 255 | 3.5 | 7.0 | 0.00 | 0.00 | 0.00 | 93 | 1014.1 |
| 20260505051228 | 40 | 241 | 2.6 | 6.1 | 0.00 | 0.00 | 0.00 | 93 | 1014.0 |
| 20260505050727 | 40 | 245 | 2.6 | 6.1 | 0.00 | 0.00 | 0.00 | 93 | 1013.9 |
| 20260505050225 | 40 | 262 | 3.5 | 6.1 | 0.00 | 0.00 | 0.00 | 93 | 1013.9 |
| 20260505041726 | 40 | 251 | 2.6 | 5.2 | 0.00 | 0.00 | 0.00 | 92 | 1013.8 |
| 20260505041225 | 40 | 251 | 2.6 | 5.2 | 0.00 | 0.00 | 0.00 | 92 | 1013.7 |
| 20260505040225 | 40 | 235 | 2.6 | 6.1 | 0.00 | 0.00 | 0.00 | 92 | 1013.8 |
| 20260505035729 | 40 | 252 | 3.5 | 6.1 | 0.00 | 0.00 | 0.00 | 92 | 1013.7 |
| 20260505035225 | 40 | 293 | 1.7 | 6.1 | 0.00 | 0.00 | 0.00 | 92 | 1013.8 |
| 20260505034227 | 40 | 262 | 2.6 | 5.2 | 0.00 | 0.00 | 0.00 | 92 | 1013.9 |
| 20260505033726 | 40 | 247 | 2.6 | 5.2 | 0.00 | 0.00 | 0.00 | 92 | 1013.8 |
| 20260505032727 | 41 | 295 | 1.7 | 6.1 | 0.00 | 0.00 | 0.00 | 92 | 1013.7 |
| 20260505032225 | 41 | 265 | 1.7 | 6.1 | 0.00 | 0.00 | 0.00 | 92 | 1013.7 |
| 20260505031726 | 41 | 264 | 1.7 | 6.1 | 0.00 | 0.00 | 0.00 | 92 | 1013.7 |
| 20260505030725 | 41 | 254 | 1.7 | 5.2 | 0.00 | 0.00 | 0.00 | 91 | 1013.8 |
| 20260505030227 | 41 | 259 | 2.6 | 5.2 | 0.00 | 0.00 | 0.00 | 92 | 1013.9 |
| 20260505025726 | 41 | 274 | 2.6 | 5.2 | 0.00 | 0.00 | 0.00 | 91 | 1013.9 |
| 20260505025225 | 41 | 266 | 2.6 | 5.2 | 0.00 | 0.00 | 0.00 | 91 | 1013.9 |
| 20260505024726 | 41 | 255 | 1.7 | 5.2 | 0.00 | 0.00 | 0.00 | 91 | 1014.0 |
| 20260505024227 | 41 | 271 | 2.6 | 5.2 | 0.00 | 0.00 | 0.00 | 91 | 1014.0 |
| 20260505023726 | 41 | 254 | 1.7 | 5.2 | 0.00 | 0.00 | 0.00 | 91 | 1014.0 |
| 20260505023225 | 41 | 251 | 2.6 | 5.2 | 0.00 | 0.00 | 0.00 | 91 | 1013.9 |
| 20260505022726 | 42 | 300 | 3.5 | 5.2 | 0.00 | 0.00 | 0.00 | 91 | 1014.0 |
| 20260505022228 | 42 | 282 | 2.6 | 6.1 | 0.00 | 0.00 | 0.00 | 91 | 1014.0 |
| 20260505021226 | 42 | 257 | 3.5 | 6.1 | 0.00 | 0.00 | 0.00 | 90 | 1014.1 |
| 20260505020725 | 42 | 278 | 3.5 | 6.1 | 0.00 | 0.00 | 0.00 | 90 | 1014.0 |
| 20260505015726 | 42 | 251 | 1.7 | 6.1 | 0.00 | 0.00 | 0.00 | 89 | 1014.1 |
| 20260505015231 | 43 | 261 | 3.5 | 6.1 | 0.00 | 0.00 | 0.00 | 89 | 1014.1 |
| 20260505014729 | 43 | 266 | 2.6 | 6.1 | 0.00 | 0.00 | 0.00 | 89 | 1014.1 |
| 20260505014225 | 43 | 264 | 2.6 | 6.1 | 0.00 | 0.00 | 0.00 | 89 | 1014.2 |
| 20260505013727 | 43 | 261 | 1.7 | 5.2 | 0.00 | 0.00 | 0.00 | 88 | 1014.3 |
| 20260505013226 | 44 | 261 | 1.7 | 5.2 | 0.00 | 0.00 | 0.00 | 88 | 1014.3 |
| 20260505012726 | 44 | 261 | 1.7 | 5.2 | 0.00 | 0.00 | 0.00 | 88 | 1014.3 |
| 20260505012228 | 44 | 261 | 1.7 | 4.3 | 0.00 | 0.01 | 0.00 | 88 | 1014.4 |
| 20260505011727 | 44 | 261 | 1.7 | 5.2 | 0.00 | 0.01 | 0.00 | 87 | 1014.4 |
| 20260505011226 | 45 | 261 | 2.6 | 5.2 | 0.00 | 0.01 | 0.00 | 87 | 1014.4 |
| 20260505010726 | 45 | 261 | 1.7 | 6.1 | 0.00 | 0.01 | 0.00 | 87 | 1014.4 |
| 20260505010225 | 45 | 290 | 2.6 | 6.1 | 0.00 | 0.01 | 0.00 | 87 | 1014.5 |
| 20260505005727 | 46 | 276 | 1.7 | 5.2 | 0.00 | 0.01 | 0.00 | 87 | 1014.3 |
| 20260505005227 | 46 | 275 | 1.7 | 5.2 | 0.00 | 0.01 | 0.00 | 86 | 1014.3 |
| 20260505004725 | 46 | 235 | 2.6 | 6.1 | 0.00 | 0.01 | 0.00 | 86 | 1014.3 |
| 20260505004225 | 46 | 265 | 2.6 | 6.1 | 0.00 | 0.01 | 0.00 | 86 | 1014.4 |
| 20260505003731 | 47 | 302 | 2.6 | 6.1 | 0.00 | 0.01 | 0.00 | 85 | 1014.3 |
| 20260505003227 | 47 | 265 | 2.6 | 7.8 | 0.00 | 0.01 | 0.00 | 85 | 1014.3 |
| 20260505002730 | 47 | 230 | 4.3 | 7.8 | 0.00 | 0.01 | 0.00 | 85 | 1014.4 |
| 20260505002227 | 47 | 219 | 3.5 | 6.1 | 0.00 | 0.01 | 0.00 | 84 | 1014.5 |
| 20260505001725 | 48 | 282 | 1.7 | 7.0 | 0.00 | 0.01 | 0.00 | 84 | 1014.4 |
| 20260505001225 | 48 | 240 | 3.5 | 10.4 | 0.00 | 0.01 | 0.00 | 83 | 1014.4 |
| 20260505000726 | 48 | 259 | 2.6 | 10.4 | 0.00 | 0.01 | 0.00 | 84 | 1014.4 |
| 20260505000226 | 48 | 250 | 4.3 | 7.8 | 0.00 | 0.01 | 0.00 | 84 | 1014.4 |
| 20260504235725 | 48 | 250 | 3.5 | 10.4 | 0.00 | 0.01 | 0.00 | 85 | 1014.4 |
| 20260504235227 | 48 | 210 | 5.2 | 10.4 | 0.00 | 0.01 | 0.00 | 85 | 1014.4 |
| 20260504234227 | 48 | 220 | 3.5 | 7.8 | 0.00 | 0.01 | 0.00 | 86 | 1014.4 |
| 20260504233729 | 49 | 247 | 2.6 | 7.0 | 0.00 | 0.01 | 0.00 | 86 | 1014.5 |
| 20260504233225 | 49 | 258 | 2.6 | 5.2 | 0.00 | 0.01 | 0.00 | 86 | 1014.5 |
| 20260504232725 | 49 | 243 | 1.7 | 6.1 | 0.00 | 0.01 | 0.00 | 86 | 1014.4 |
| 20260504230727 | 49 | 235 | 1.7 | 6.1 | 0.00 | 0.01 | 0.00 | 88 | 1014.4 |
| 20260504225725 | 48 | 238 | 2.6 | 7.8 | 0.00 | 0.02 | 0.02 | 89 | 1014.5 |
| 20260504225226 | 48 | 235 | 2.6 | 7.8 | 0.00 | 0.02 | 0.02 | 90 | 1014.5 |
| 20260504224725 | 48 | 248 | 1.7 | 7.0 | 0.00 | 0.02 | 0.02 | 90 | 1014.4 |
| 20260504224226 | 48 | 248 | 2.6 | 7.0 | 0.00 | 0.02 | 0.02 | 90 | 1014.5 |
| 20260504223718 | 48 | 228 | 3.5 | 6.1 | 0.00 | 0.02 | 0.02 | 89 | 1014.4 |
| 20260504223219 | 48 | 274 | 2.6 | 5.2 | 0.00 | 0.02 | 0.02 | 89 | 1014.6 |
| 20260504222714 | 49 | 252 | 2.6 | 6.1 | 0.00 | 0.02 | 0.02 | 88 | 1014.5 |
| 20260504221711 | 49 | 271 | 2.6 | 5.2 | 0.00 | 0.02 | 0.02 | 87 | 1014.6 |